Austin, TX

12:06 PM CDT on September 24, 2017 (GMT -0500)
Austin

Weather History for KATT - November, 2013

Change the Weather History Date:

Wednesday, November 6, 2013

  Actual Average Record
Temperature  
Mean Temperature 62 °F 65 °F  
Max Temperature 72 °F 75 °F 89 °F (1963)
Min Temperature 52 °F 54 °F 30 °F (1959)
Degree Days  
Heating Degree Days 3 4  
Month to date heating degree days 14 19  
Since 1 July heating degree days 34 50  
Cooling Degree Days 0 3  
Month to date cooling degree days 11 22  
Year to date cooling degree days 3412 3087  
Growing Degree Days 12 (Base 50)    
Moisture  
Dew Point 55 °F    
Average Humidity 74    
Maximum Humidity 93    
Minimum Humidity 55    
Precipitation  
Precipitation 0.33 in 0.10 in 1.90 in (1925)
Month to date precipitation 0.38 0.65  
Year to date precipitation 37.26 29.61  
Snow  
Snow 0.00 in - - ()
Month to date snowfall 0.0  
Since 1 July snowfall 0.0  
Since 1 September snowfall 0.0  
Snow Depth 0.00 in    
Sea Level Pressure  
Sea Level Pressure 30.14 in    
Wind  
Wind Speed 5 mph (NNW)    
Max Wind Speed 16 mph    
Max Gust Speed 23 mph    
Visibility 9 miles    
Events Rain    
T = Trace of Precipitation, MM = Missing Value Source: NWS Daily Summary

Daily Weather History Graph

Daily Weather History Graph

Search for Another Location

Airport or City:

Trip Planner

Search our weather history database for the weather conditions in past years. The results will help you decide how hot, cold, wet, or windy it might be!

Date:

Astronomy

Nov. 06, 2013 Rise Set
Actual Time 6:49 AM CST 5:39 PM CST
Civil Twilight 6:24 AM CST 6:04 PM CST
Nautical Twilight 5:55 AM CST 6:33 PM CST
Astronomical Twilight 5:27 AM CST 7:01 PM CST
Moon 10:00 AM CST (11/6) 8:50 PM CST (11/6)
Length of Visible Light 11h 40m
Length of Day
10h 49m
Waxing Crescent, 14% of the Moon is Illuminated
Nov 6
Waxing Crescent
Nov 9
First Quarter
Nov 17
Full
Nov 25
Last Quarter
Dec 2
New

Hourly Weather History & Observations

Time (CST) Temp. Dew Point Humidity Pressure Visibility Wind Dir Wind Speed Gust Speed Precip Events Conditions
12:51 AM 72.0 °F 69.1 °F 91% 29.98 in 10.0 mi SE 4.6 mph - N/A   Overcast
1:09 AM 72.0 °F 69.1 °F 91% 30.01 in 10.0 mi Variable 3.5 mph - N/A   Overcast
1:51 AM 72.0 °F 69.1 °F 91% 29.98 in 10.0 mi West 3.5 mph - N/A   Overcast
2:00 AM 71.1 °F 66.0 °F 84% 30.01 in 10.0 mi NNW 5.8 mph - N/A   Overcast
2:26 AM 68.0 °F 62.1 °F 81% 30.02 in 9.0 mi NW 9.2 mph 18.4 mph 0.00 in Rain Light Rain
2:49 AM 66.2 °F 62.6 °F 88% 30.02 in 10.0 mi NNW 9.2 mph - 0.02 in Rain Light Rain
2:51 AM 66.9 °F 62.1 °F 84% 29.99 in 10.0 mi NNW 6.9 mph - 0.02 in Rain Light Rain
3:19 AM 64.9 °F 63.0 °F 93% 30.03 in 3.0 mi NW 4.6 mph - 0.09 in Rain Rain
3:28 AM 64.9 °F 63.0 °F 93% 30.01 in 2.5 mi Variable 3.5 mph - 0.19 in Rain Light Rain
3:37 AM 64.9 °F 63.0 °F 93% 30.01 in 4.0 mi Calm Calm - 0.20 in Rain Rain
3:51 AM 64.9 °F 63.0 °F 93% 29.99 in 5.0 mi Calm Calm - 0.24 in Rain Light Rain
4:51 AM 66.0 °F 64.0 °F 93% 30.00 in 9.0 mi Calm Calm - 0.06 in   Overcast
5:51 AM 66.0 °F 64.0 °F 93% 30.01 in 8.0 mi Calm Calm - 0.01 in   Overcast
6:51 AM 66.0 °F 64.0 °F 93% 30.02 in 10.0 mi Calm Calm - 0.00 in   Overcast
7:51 AM 66.0 °F 63.0 °F 90% 30.06 in 10.0 mi Calm Calm - N/A   Partly Cloudy
8:51 AM 66.9 °F 63.0 °F 87% 30.09 in 10.0 mi North 4.6 mph - N/A   Mostly Cloudy
9:10 AM 66.9 °F 63.0 °F 87% 30.13 in 10.0 mi NNW 6.9 mph - N/A   Overcast
9:34 AM 66.0 °F 62.1 °F 87% 30.15 in 10.0 mi NNW 12.7 mph 20.7 mph N/A   Overcast
9:51 AM 62.1 °F 57.9 °F 86% 30.16 in 10.0 mi NW 10.4 mph 23.0 mph 0.00 in Rain Light Rain
10:20 AM 57.9 °F 54.0 °F 87% 30.20 in 10.0 mi NNW 8.1 mph 23.0 mph 0.00 in   Overcast
10:51 AM 57.0 °F 52.0 °F 83% 30.20 in 10.0 mi NNW 10.4 mph 21.9 mph 0.00 in   Overcast
11:05 AM 57.9 °F 51.1 °F 78% 30.21 in 10.0 mi NNW 12.7 mph 23.0 mph N/A   Overcast
11:43 AM 57.9 °F 51.1 °F 78% 30.21 in 10.0 mi NNW 8.1 mph - N/A   Overcast
11:51 AM 59.0 °F 51.1 °F 75% 30.19 in 10.0 mi NNW 6.9 mph - N/A   Overcast
12:22 PM 59.0 °F 52.0 °F 78% 30.21 in 10.0 mi NNW 8.1 mph 18.4 mph N/A   Overcast
12:51 PM 60.1 °F 52.0 °F 75% 30.19 in 10.0 mi North 15.0 mph 23.0 mph N/A   Overcast
12:59 PM 60.1 °F 52.0 °F 75% 30.20 in 10.0 mi North 11.5 mph 20.7 mph N/A   Overcast
1:37 PM 57.9 °F 51.1 °F 78% 30.21 in 10.0 mi NNW 8.1 mph 20.7 mph 0.00 in Rain Light Rain
1:51 PM 57.0 °F 50.0 °F 77% 30.19 in 10.0 mi NNW 9.2 mph 20.7 mph 0.00 in Rain Light Rain
2:12 PM 57.9 °F 48.9 °F 72% 30.20 in 10.0 mi NNW 13.8 mph 20.7 mph 0.00 in   Mostly Cloudy
2:51 PM 61.0 °F 50.0 °F 67% 30.19 in 10.0 mi North 10.4 mph 19.6 mph 0.00 in   Partly Cloudy
3:51 PM 60.1 °F 46.9 °F 62% 30.20 in 10.0 mi North 10.4 mph 19.6 mph N/A   Clear
4:51 PM 61.0 °F 45.0 °F 56% 30.21 in 10.0 mi North 8.1 mph 20.7 mph N/A   Clear
5:51 PM 59.0 °F 45.0 °F 60% 30.23 in 10.0 mi North 4.6 mph - N/A   Clear
6:51 PM 57.0 °F 43.0 °F 59% 30.26 in 10.0 mi North 4.6 mph - N/A   Clear
7:51 PM 55.9 °F 41.0 °F 57% 30.28 in 10.0 mi North 4.6 mph - N/A   Clear
8:51 PM 54.0 °F 42.1 °F 64% 30.31 in 10.0 mi Calm Calm - N/A   Clear
9:51 PM 54.0 °F 43.0 °F 66% 30.33 in 10.0 mi Calm Calm - N/A   Clear
10:51 PM 53.1 °F 42.1 °F 66% 30.35 in 10.0 mi North 5.8 mph - N/A   Clear
11:51 PM 52.0 °F 39.9 °F 63% 30.35 in 10.0 mi Variable 4.6 mph - N/A   Clear